Mumbai, India

11:14 AM IST on May 23, 2017 (GMT +0530)
Chhatrapati Shivaji International

Weather History for VABB - February, 2013

Change the Weather History Date:

Thursday, February 28, 2013

  Actual Average Record
Temperature  
Mean Temperature 79 °F -  
Max Temperature 92 °F 89 °F 100 °F (1997)
Min Temperature 66 °F 71 °F 64 °F (1998)
Cooling Degree Days 14    
Growing Degree Days 29 (Base 50)    
Moisture  
Dew Point 60 °F    
Average Humidity 53    
Maximum Humidity 78    
Minimum Humidity 17    
Precipitation  
Precipitation 0.00 in - - ()
Sea Level Pressure  
Sea Level Pressure 29.91 in    
Wind  
Wind Speed 5 mph ()    
Max Wind Speed 12 mph    
Max Gust Speed -    
Visibility 2.1 miles    
Events      
Averages and records for this station are not official NWS values.
T = Trace of Precipitation, MM = Missing Value Source: Averaged Metar Reports

Daily Weather History Graph

Daily Weather History Graph

Search for Another Location

Airport or City:

Trip Planner

Search our weather history database for the weather conditions in past years. The results will help you decide how hot, cold, wet, or windy it might be!

Date:

Astronomy

Feb. 28, 2013 Rise Set
Actual Time 6:58 AM IST 6:43 PM IST
Civil Twilight 6:36 AM IST 7:05 PM IST
Nautical Twilight 6:11 AM IST 7:31 PM IST
Astronomical Twilight 5:45 AM IST 7:56 PM IST
Moon 9:08 PM IST (2/28) 8:20 AM IST (2/28)
Length of Visible Light 12h 29m
Length of Day
11h 45m
Waning Gibbous, 93% of the Moon is Illuminated
Feb 28
Waning Gibbous
Mar 5
Last Quarter
Mar 12
New
Mar 19
First Quarter
Mar 27
Full

Hourly Weather History & Observations

Time (IST) Temp. Heat Index Dew Point Humidity Pressure Visibility Wind Dir Wind Speed Gust Speed Precip Events Conditions
12:10 AM 77.0 °F - 59.0 °F 54% 29.95 in 2.2 mi NW 3.5 mph - N/A   Smoke
12:40 AM 75.2 °F - 60.8 °F 61% 29.95 in 2.2 mi NNW 5.8 mph - N/A   Smoke
1:10 AM 75.2 °F - 62.6 °F 65% 29.95 in 2.2 mi NNW 4.6 mph - N/A   Smoke
1:40 AM 75.2 °F - 64.4 °F 69% 29.92 in 2.2 mi NW 5.8 mph - N/A   Smoke
2:10 AM 73.4 °F - 64.4 °F 73% 29.92 in 2.2 mi NW 8.1 mph - N/A   Smoke
2:30 AM 72 °F - 64 °F 70% 29.92 in 1 mi North 6.9 mph - -   Haze
2:40 AM 73.4 °F - 64.4 °F 73% 29.92 in 2.2 mi NNW 5.8 mph - N/A   Smoke
3:10 AM 73.4 °F - 64.4 °F 73% 29.92 in 2.2 mi North 8.1 mph - N/A   Smoke
3:40 AM 73.4 °F - 64.4 °F 73% 29.92 in 2.2 mi NNW 4.6 mph - N/A   Smoke
4:10 AM 73.4 °F - 64.4 °F 73% 29.92 in 2.2 mi NNW 8.1 mph - N/A   Smoke
4:40 AM 73.4 °F - 64.4 °F 73% 29.92 in 2.2 mi NNW 9.2 mph - N/A   Smoke
5:10 AM 73.4 °F - 64.4 °F 73% 29.92 in 2.2 mi NNW 6.9 mph - N/A   Smoke
5:30 AM 72 °F - 66 °F 75% 29.91 in 1 mi North 11.5 mph - -   Haze
5:40 AM 71.6 °F - 64.4 °F 78% 29.92 in 2.2 mi NNW 6.9 mph - N/A   Smoke
6:10 AM 71.6 °F - 64.4 °F 78% 29.92 in 2.2 mi NNW 5.8 mph - N/A   Smoke
6:40 AM 71.6 °F - 64.4 °F 78% 29.92 in 2.2 mi NNW 4.6 mph - N/A   Smoke
7:10 AM 71.6 °F - 64.4 °F 78% 29.95 in 2.5 mi NNW 4.6 mph - N/A   Smoke
7:40 AM 71.6 °F - 62.6 °F 73% 29.95 in 2.5 mi NNE 4.6 mph - N/A   Smoke
8:10 AM 71.6 °F - 62.6 °F 73% 29.95 in 2.2 mi ESE 6.9 mph - N/A   Smoke
8:30 AM 72 °F - 64 °F 69% 29.96 in 1 mi Calm Calm - -   Haze
8:40 AM 73.4 °F - 60.8 °F 65% 29.98 in 2.2 mi SE 4.6 mph - N/A   Smoke
9:10 AM 75.2 °F - 60.8 °F 61% 29.98 in 2.2 mi Calm Calm - N/A   Smoke
9:40 AM 77.0 °F - 60.8 °F 57% 29.98 in 2.2 mi Calm Calm - N/A   Smoke
10:10 AM 78.8 °F - 59.0 °F 51% 29.98 in 2.2 mi Calm Calm - N/A   Smoke
11:10 AM 84.2 °F 83.0 °F 55.4 °F 37% 29.98 in 2.2 mi NNE 6.9 mph - N/A   Smoke
11:30 AM 86 °F - 59 °F 30% 29.97 in 1 mi Calm Calm - -   Smoke
11:40 AM 87.8 °F 85.7 °F 53.6 °F 31% 29.98 in 2.5 mi North 5.8 mph - N/A   Smoke
12:10 PM 89.6 °F - 51.8 °F 27% 29.95 in 2.5 mi NE 5.8 mph - N/A   Smoke
1:10 PM 93.2 °F - 42.8 °F 17% 29.92 in 3.1 mi NE 6.9 mph - N/A   Smoke
1:40 PM 91.4 °F 90.7 °F 59.0 °F 34% 29.89 in 3.7 mi WNW 6.9 mph - N/A   Unknown
2:30 PM 91 °F - 60 °F 26% 29.88 in 1 mi NW 5.8 mph - -   Smoke
2:40 PM 89.6 °F 88.9 °F 59.0 °F 36% 29.86 in 3.1 mi WNW 10.4 mph - N/A   Smoke
3:10 PM 89.6 °F 88.9 °F 59.0 °F 36% 29.86 in 3.1 mi NW 9.2 mph - N/A   Smoke
3:40 PM 89.6 °F 88.1 °F 57.2 °F 33% 29.86 in 3.1 mi NW 9.2 mph - N/A   Smoke
4:10 PM 87.8 °F 87.6 °F 60.8 °F 40% 29.86 in 2.8 mi NW 11.5 mph - N/A   Smoke
4:40 PM 86.0 °F 86.6 °F 62.6 °F 45% 29.83 in 2.8 mi NW 8.1 mph - N/A   Smoke
5:10 PM 86.0 °F 86.1 °F 60.8 °F 43% 29.83 in 2.8 mi NW 10.4 mph - N/A   Smoke
5:30 PM 85 °F - 61 °F 34% 29.85 in 1 mi North 4.6 mph - -   Smoke
5:40 PM 86.0 °F 84.5 °F 55.4 °F 35% 29.83 in 2.8 mi NW 10.4 mph - N/A   Smoke
6:10 PM 84.2 °F 83.5 °F 57.2 °F 40% 29.83 in 2.5 mi NW 8.1 mph - N/A   Smoke
6:40 PM 84.2 °F 83.5 °F 57.2 °F 40% 29.86 in 2.2 mi NW 6.9 mph - N/A   Smoke
7:40 PM 82.4 °F 82.0 °F 57.2 °F 42% 29.86 in 1.9 mi North 10.4 mph - N/A   Smoke
8:10 PM 82.4 °F 82.0 °F 57.2 °F 42% 29.86 in 1.9 mi North 10.4 mph - N/A   Smoke
8:30 PM 80 °F - 57 °F 35% 29.88 in 1 mi North 5.8 mph - -   Smoke
8:40 PM 80.6 °F 80.8 °F 57.2 °F 45% 29.89 in 1.7 mi NNW 8.1 mph - N/A   Smoke
9:40 PM 80.6 °F 80.5 °F 55.4 °F 42% 29.92 in 1.9 mi NNE 5.8 mph - N/A   Smoke
10:10 PM 80.6 °F 80.5 °F 55.4 °F 42% 29.92 in 1.9 mi NNW 6.9 mph - N/A   Smoke
10:40 PM 80.6 °F 80.8 °F 57.2 °F 45% 29.92 in 1.9 mi NW 5.8 mph - N/A   Smoke
11:10 PM 78.8 °F - 57.2 °F 47% 29.92 in 2.2 mi NW 3.5 mph - N/A   Smoke
11:30 PM 72 °F - 59 °F 55% 29.92 in 1 mi Calm Calm - -   Smoke
11:40 PM 78.8 °F - 53.6 °F 42% 29.92 in 2.2 mi Calm Calm - N/A   Smoke